RH
94 96 96 96 96 96 98 98 100 100 99 97 95 96 98 99 99 99 99 98 97 96
94 94 95 96 96 96 96 96 97 99 99 100 100 98 97 98 98 97 99 99 98 98
94 94 94 92 95 96 95 96 95 96 98 99 100 100 100 100 100 99 99 98 98 98
94 93 90 92 93 94 91 89 90 94 95 96 97 99 99 100 100 100 100 100 100 100
94 93 92 93 93 91 92 91 89 88 88 94 95 96 96 97 98 98 98 99 100 100
91 93 95 95 95 94 93 92 90 90 93 89 88 90 94 96 96 97 98 98 98 98
88 88 90 89 90 92 93 94 94 94 93 94 93 88 89 87 89 91 90 91 94 96
84 83 83 84 86 87 87 89 91 90 90 90 94 98 93 92 95 94 86 89 88 84
85 82 83 83 85 83 85 87 87 89 89 88 90 82 79 92 96 95 95 95 91 79
88 86 87 85 85 86 87 84 86 83 83 88 89 83 87 78 92 94 97 96 95 91
94 91 88 90 89 86 86 85 76 74 73 76 64 73 76 78 94 94 92 94 94 96
100 99 94 96 97 92 90 79 65 58 72 76 63 69 66 74 85 81 83 73 89 87
100 100 100 100 100 99 93 72 57 57 65 70 75 74 66 67 69 87 65 68 66 69
100 100 100 100 100 100 99 90 94 82 80 71 64 68 67 62 70 67 62 60 63 59
Wind_Speed
14 9 8 10 9 6 8 6 9 8 7 9 6 4 7 4 3 6 7 5 7 4
13 13 11 12 10 8 8 7 9 7 9 8 5 8 8 6 4 3 4 5 7 4
12 13 12 12 13 12 11 12 11 11 11 10 8 7 5 5 4 9 3 3 7 5
12 13 13 12 12 11 11 11 11 11 11 10 10 8 8 8 5 5 3 6 7 6
12 13 13 13 12 12 12 11 11 11 11 11 11 10 10 8 7 7 6 5 5 2
13 13 13 12 12 12 12 12 12 11 11 10 10 10 10 9 8 7 6 6 7 6
11 11 10 10 11 11 11 11 11 11 10 10 8 7 8 8 8 8 7 7 5 4
9 9 9 10 11 10 11 10 10 10 10 10 9 7 6 7 7 7 7 8 8 7
8 9 9 9 9 10 10 10 10 11 10 10 8 21 20 12 7 7 6 6 6 6
7 8 8 8 8 9 9 8 9 10 10 11 11 19 20 18 7 7 6 6 6 5
6 6 6 7 8 8 7 8 7 8 9 8 8 17 17 17 7 6 6 7 7 5
3 4 5 6 6 5 5 6 7 7 8 8 8 16 14 10 6 8 7 7 5 4
1 2 3 1 2 3 3 6 6 7 7 10 7 15 13 9 5 5 5 5 7 9
3 3 3 1 2 3 4 4 4 5 5 5 7 7 12 11 3 3 4 5 4 4
Wind_Direction
34 44 45 39 44 41 37 5 35 24 56 53 355 64 87 83 75 67 89 96 87 81
34 41 41 41 41 44 41 22 32 27 53 53 22 41 57 63 51 123 77 83 95 108
34 37 42 41 41 40 38 35 28 22 37 40 33 38 51 74 43 71 70 128 111 95
30 33 41 41 37 37 42 41 42 37 35 31 37 27 52 53 41 66 75 76 82 86
29 31 36 33 32 31 37 37 39 43 46 40 36 34 37 44 42 56 46 36 61 112
27 27 28 27 26 29 32 35 35 35 39 41 44 49 44 37 42 44 44 45 58 30
24 20 20 21 25 27 30 34 33 31 29 24 23 51 54 55 53 45 37 43 53 56
20 24 25 23 21 20 25 25 30 32 29 17 10 44 80 58 54 49 47 43 37 30
21 25 23 22 24 25 20 19 25 26 24 20 4 37 52 52 38 39 42 37 37 34
16 25 19 17 25 26 17 18 31 28 24 17 360 30 37 47 41 42 33 33 29 37
22 21 17 23 23 18 8 14 22 26 23 17 12 13 12 33 11 29 34 36 26 16
37 33 20 26 10 11 4 17 14 19 13 1 7 4 10 30 20 19 9 13 7 356
304 14 10 1 11 345 336 22 7 7 17 357 354 354 1 13 16 5 9 6 17 0
217 215 233 319 7 6 5 15 12 2 343 346 345 342 357 355 13 342 333 339 340 350